Date,TemperatureHighF,TemperatureAvgF,TemperatureLowF,DewpointHighF,DewpointAvgF,DewpointLowF,HumidityHigh,HumidityAvg,HumidityLow,PressureMaxIn,PressureMinIn,WindSpeedMaxMPH,WindSpeedAvgMPH,GustSpeedMaxMPH,PrecipitationSumIn
2013-2-1,67,54,44,46,38,29,79,57,25,30.38,30.24,10,1,12,0.00
2013-2-2,71,56,46,49,42,27,86,64,21,30.33,30.17,7,1,7,0.00
2013-2-3,69,54,42,56,49,41,98,82,60,30.22,30.11,9,1,9,0.00
2013-2-4,70,53,42,54,44,37,99,76,34,30.16,30.06,9,1,9,0.01
2013-2-5,76,58,44,56,49,42,98,75,43,30.11,30.01,8,1,10,0.00
2013-2-6,77,67,57,64,60,54,95,79,57,30.11,30.03,8,1,8,0.00
2013-2-7,79,69,61,67,64,59,98,86,58,30.06,29.87,19,2,19,0.13
2013-2-8,73,65,57,67,61,56,96,89,70,30.10,29.91,10,2,12,0.00
2013-2-9,78,63,54,60,56,52,98,79,44,30.21,30.08,8,2,9,0.01
2013-2-10,81,69,61,64,60,56,89,75,52,30.25,30.13,14,2,14,0.00
2013-2-11,80,70,62,68,64,60,94,83,65,30.20,30.08,11,2,20,0.00
2013-2-12,79,72,66,72,69,65,97,90,76,30.10,29.95,14,2,17,0.00
2013-2-13,77,70,58,73,68,56,98,94,84,30.00,29.85,16,3,18,0.52
2013-2-14,62,60,58,61,59,57,99,97,91,30.07,29.93,8,0,8,0.34
2013-2-15,67,58,53,58,54,51,98,90,64,30.10,29.97,5,1,7,0.03
2013-2-16,67,56,48,54,47,36,97,73,50,30.16,29.97,13,2,16,0.00
2013-2-17,53,46,36,37,28,19,85,51,35,30.36,30.16,13,2,16,0.00
2013-2-18,69,50,35,50,38,29,91,68,37,30.38,30.21,10,1,12,0.00
2013-2-19,75,63,49,62,56,48,98,81,56,30.23,30.09,11,1,13,0.00
2013-2-20,76,64,57,65,60,53,98,88,67,30.14,30.02,8,1,9,0.01
2013-2-21,82,68,57,67,62,53,95,83,60,30.12,29.99,11,1,13,0.00
2013-2-22,81,70,61,71,66,60,99,87,68,30.07,29.99,12,1,13,0.00
2013-2-23,76,71,68,72,69,67,98,94,86,30.01,29.90,15,2,15,0.00
2013-2-24,78,70,67,72,69,66,99,94,81,29.96,29.88,11,1,12,0.00
2013-2-25,82,73,67,73,69,66,99,88,69,29.91,29.77,13,1,14,0.00
2013-2-26,75,71,66,72,67,61,98,89,75,29.90,29.70,14,2,20,0.34
2013-2-27,69,64,58,61,57,53,92,79,63,30.00,29.88,6,1,9,0.00
2013-2-28,71,62,54,58,54,48,94,74,58,30.02,29.92,10,1,12,0.00